Regional Weather Roundup
Issued by NWS Cleveland, OH

Home | Current Version | Previous Version | Graphics & Text | Print | Product List | Glossary On
Versions: 1 2 3 4 5 6 7 8 9 10 11 12 13 14 15 16 17 18 19 20 21 22 23 24 25 26 27 28 29 30 31 32 33 34 35 36 37 38 39 40 41 42 43 44 45 46 47 48 49 50
000
ASUS41 KCLE 190510
RWRCLE
OHIO REGIONAL WEATHER ROUNDUP
NATIONAL WEATHER SERVICE CLEVELAND, OH
1200 AM EST SUN FEB 19 2017

NOTE: "FAIR" INDICATES FEW OR NO CLOUDS BELOW 12,000 FEET WITH NO
SIGNIFICANT WEATHER AND/OR OBSTRUCTIONS TO VISIBILITY.

OHZ001>008-015>018-024>027-034-035-043-044-190600-
   NORTHWEST OHIO

CITY           SKY/WX    TMP DP  RH WIND       PRES   REMARKS
DEFIANCE       CLEAR     47  39  74 SW5       29.82R
FINDLAY        CLEAR     48  39  71 SW10      29.82R
TOLEDO EXPRESS CLEAR     45  40  82 W9        29.79S
TOLEDO EXEC    CLEAR     45  40  82 SW8       29.80S
LIMA           CLEAR     48  41  76 SW9       29.84R
$$

OHZ009>014-019>023-028>033-038-089-190600-
   NORTHEAST OHIO

CITY           SKY/WX    TMP DP  RH WIND       PRES   REMARKS
CLE-HOPKINS    CLEAR     52  38  58 SW9       29.83R
CLE-LAKEFRONT  PTCLDY    55  39  54 SW17      29.78R
CUY CO. ARPT   NOT AVBL
LORAIN-ELYRIA  CLEAR     48  38  68 W10       29.81R
ASHTABULA      CLEAR     48  39  71 SW7       29.78R
AKRON-CANTON   CLOUDY    50  38  63 SW12      29.83R
WOOSTER        CLEAR     47  40  76 SW8       29.84R
MANSFIELD      CLEAR     48  41  76 SW10      29.84R
YOUNGSTOWN     PTCLDY    50  38  63 SW12      29.81R
$$

OHZ042-051>053-060>062-070>072-077>081-190600-
  SOUTHWEST OHIO

CITY           SKY/WX    TMP DP  RH WIND       PRES   REMARKS
CINC-COVINGTON CLOUDY    51  48  89 SW6       29.92R
CINC-LUNKEN    CLOUDY    52  48  86 SW5       29.93R
HAMILTON       CLOUDY    51  47  86 W7        29.92R
DAYTON         PTCLDY    47  44  90 SW13      29.89R
WRIGHT-PAT AFB CLEAR     47  47  99 SW14      29.88S
DAYTON GENERAL PTCLDY    49  45  86 SW9       29.89R
WILMINGTON     MOCLDY    47  45  93 SW10      29.89S
$$

OHZ036-037-039>041-045>050-054>059-063>069-073>076-082>088-190600-
  CENTRAL AND SOUTHEAST OHIO

CITY           SKY/WX    TMP DP  RH WIND       PRES   REMARKS
COLUMBUS       CLOUDY    50  43  77 S6        29.87S
OSU AIRPORT    PTCLDY    47  44  90 SW8       29.87R
BOLTON FIELD   CLOUDY    46  43  90 SW9       29.88S
RICKENBACK AFB CLOUDY    46  43  92 SW6       29.88S
NEWARK         PTCLDY    49  42  77 SW8       29.87R
MARION         CLEAR     46  41  82 SW8       29.85R
LANCASTER      CLOUDY    50  43  77 SW8       29.89S
ZANESVILLE     PTCLDY    50  42  74 SW6       29.88R
NEW PHILLY     NOT AVBL
$$




USA.gov is the U.S. government's official web portal to all federal, state and local government web resources and services.